| time (UTC) | temp F | wind direction | speed MPH | gust MPH | rain 1hr in | rain 24hr in | rain mn in | humidity % | barometer mb |
| 20260504223004 | 86 | 143 | 1.0 | 3.0 | 0.00 | 0.22 | 0.22 | 79 | 1010.0 |
| 20260504222704 | 86 | 124 | 1.0 | 3.0 | 0.00 | 0.22 | 0.22 | 79 | 1010.0 |
| 20260504222404 | 86 | 92 | 1.0 | 2.0 | 0.00 | 0.22 | 0.22 | 79 | 1010.0 |
| 20260504222104 | 86 | 60 | 1.0 | 2.0 | 0.00 | 0.22 | 0.22 | 79 | 1010.0 |
| 20260504221804 | 86 | 38 | 1.0 | 3.0 | 0.00 | 0.22 | 0.22 | 79 | 1010.0 |
| 20260504221504 | 86 | 53 | 1.0 | 3.0 | 0.00 | 0.22 | 0.22 | 79 | 1010.0 |
| 20260504221204 | 86 | 111 | 1.0 | 3.0 | 0.00 | 0.22 | 0.22 | 79 | 1010.0 |
| 20260504220925 | 86 | 145 | 1.0 | 4.0 | 0.00 | 0.22 | 0.22 | 79 | 1010.0 |
| 20260504220604 | 86 | 155 | 1.0 | 4.0 | 0.00 | 0.22 | 0.22 | 79 | 1010.0 |
| 20260504220304 | 86 | 157 | 1.0 | 4.0 | 0.00 | 0.22 | 0.22 | 79 | 1010.0 |
| 20260504220025 | 86 | 148 | 1.0 | 4.0 | 0.00 | 0.22 | 0.22 | 79 | 1010.0 |
| 20260504215704 | 86 | 143 | 1.0 | 2.0 | 0.00 | 0.22 | 0.22 | 79 | 1010.0 |
| 20260504215404 | 86 | 148 | 1.0 | 3.0 | 0.00 | 0.22 | 0.22 | 79 | 1010.0 |
| 20260504215104 | 86 | 145 | 1.0 | 3.0 | 0.00 | 0.22 | 0.22 | 79 | 1010.0 |
| 20260504214825 | 86 | 147 | 2.0 | 3.0 | 0.00 | 0.22 | 0.22 | 79 | 1010.0 |
| 20260504214504 | 86 | 148 | 1.0 | 3.0 | 0.00 | 0.22 | 0.22 | 79 | 1010.0 |
| 20260504214204 | 86 | 147 | 1.0 | 3.0 | 0.00 | 0.22 | 0.22 | 79 | 1010.0 |
| 20260504213904 | 86 | 147 | 1.0 | 3.0 | 0.00 | 0.22 | 0.22 | 79 | 1010.0 |
| 20260504213604 | 86 | 141 | 1.0 | 3.0 | 0.00 | 0.22 | 0.22 | 79 | 1010.0 |
| 20260504213325 | 86 | 144 | 0.0 | 2.0 | 0.00 | 0.22 | 0.22 | 79 | 1010.0 |
| 20260504213004 | 86 | 139 | 0.0 | 3.0 | 0.00 | 0.22 | 0.22 | 79 | 1010.0 |
| 20260504212705 | 86 | 130 | 1.0 | 3.0 | 0.00 | 0.22 | 0.22 | 79 | 1010.0 |
| 20260504212404 | 86 | 129 | 1.0 | 3.0 | 0.00 | 0.22 | 0.22 | 79 | 1010.0 |
| 20260504212104 | 86 | 117 | 1.0 | 3.0 | 0.00 | 0.22 | 0.22 | 79 | 1010.0 |
| 20260504211804 | 86 | 103 | 1.0 | 3.0 | 0.00 | 0.22 | 0.22 | 79 | 1010.0 |
| 20260504211504 | 86 | 78 | 1.0 | 3.0 | 0.00 | 0.22 | 0.22 | 79 | 1010.0 |
| 20260504211204 | 86 | 64 | 1.0 | 3.0 | 0.00 | 0.22 | 0.22 | 78 | 1010.0 |
| 20260504210904 | 86 | 79 | 1.0 | 3.0 | 0.00 | 0.22 | 0.22 | 78 | 1010.0 |
| 20260504210625 | 86 | 86 | 1.0 | 3.0 | 0.00 | 0.22 | 0.22 | 78 | 1010.0 |
| 20260504210304 | 86 | 90 | 1.0 | 3.0 | 0.00 | 0.22 | 0.22 | 78 | 1010.0 |
| 20260504210004 | 86 | 106 | 1.0 | 2.0 | 0.00 | 0.22 | 0.22 | 78 | 1010.0 |
| 20260504205704 | 86 | 105 | 1.0 | 2.0 | 0.00 | 0.22 | 0.22 | 78 | 1010.0 |
| 20260504205404 | 86 | 85 | 1.0 | 3.0 | 0.00 | 0.22 | 0.22 | 78 | 1010.0 |
| 20260504205104 | 86 | 53 | 1.0 | 3.0 | 0.00 | 0.22 | 0.22 | 78 | 1010.0 |
| 20260504204804 | 86 | 57 | 1.0 | 3.0 | 0.00 | 0.22 | 0.22 | 77 | 1010.0 |
| 20260504204525 | 86 | 88 | 1.0 | 3.0 | 0.00 | 0.23 | 0.22 | 77 | 1010.0 |
| 20260504204225 | 86 | 116 | 1.0 | 3.0 | 0.00 | 0.26 | 0.22 | 77 | 1010.0 |
| 20260504203904 | 86 | 124 | 1.0 | 3.0 | 0.00 | 0.27 | 0.22 | 77 | 1010.0 |
| 20260504203604 | 86 | 123 | 1.0 | 3.0 | 0.00 | 0.28 | 0.22 | 77 | 1010.0 |
| 20260504203304 | 86 | 119 | 1.0 | 3.0 | 0.00 | 0.28 | 0.22 | 77 | 1010.0 |
| 20260504203004 | 86 | 115 | 1.0 | 3.0 | 0.00 | 0.28 | 0.22 | 77 | 1010.0 |
| 20260504202704 | 86 | 91 | 1.0 | 4.0 | 0.00 | 0.28 | 0.22 | 77 | 1010.0 |
| 20260504202404 | 86 | 84 | 1.0 | 4.0 | 0.00 | 0.28 | 0.22 | 77 | 1010.0 |
| 20260504202104 | 86 | 128 | 1.0 | 4.0 | 0.00 | 0.28 | 0.22 | 77 | 1010.0 |
| 20260504201804 | 86 | 122 | 1.0 | 4.0 | 0.00 | 0.28 | 0.22 | 77 | 1010.0 |
| 20260504201504 | 86 | 94 | 1.0 | 3.0 | 0.00 | 0.28 | 0.22 | 77 | 1010.0 |
| 20260504201225 | 86 | 107 | 1.0 | 3.0 | 0.00 | 0.28 | 0.22 | 77 | 1010.0 |
| 20260504200904 | 86 | 112 | 1.0 | 3.0 | 0.00 | 0.28 | 0.22 | 77 | 1010.0 |
| 20260504200604 | 86 | 144 | 1.0 | 4.0 | 0.01 | 0.28 | 0.22 | 77 | 1010.0 |
| 20260504200304 | 86 | 143 | 1.0 | 4.0 | 0.02 | 0.28 | 0.22 | 77 | 1010.0 |
| 20260504200004 | 86 | 137 | 1.0 | 4.0 | 0.07 | 0.28 | 0.22 | 77 | 1010.0 |
| 20260504195704 | 86 | 123 | 1.0 | 4.0 | 0.15 | 0.28 | 0.22 | 77 | 1010.0 |
| 20260504195404 | 86 | 94 | 1.0 | 3.0 | 0.20 | 0.28 | 0.22 | 77 | 1010.0 |
| 20260504195105 | 86 | 88 | 1.0 | 4.0 | 0.22 | 0.28 | 0.22 | 77 | 1010.0 |
| 20260504194804 | 86 | 88 | 1.0 | 4.0 | 0.22 | 0.28 | 0.22 | 76 | 1010.0 |
| 20260504194504 | 86 | 96 | 1.0 | 4.0 | 0.22 | 0.28 | 0.22 | 77 | 1010.0 |
| 20260504194204 | 86 | 95 | 2.0 | 4.0 | 0.22 | 0.28 | 0.22 | 77 | 1010.0 |
| 20260504193925 | 86 | 96 | 1.0 | 3.0 | 0.22 | 0.28 | 0.22 | 77 | 1010.0 |
| 20260504193604 | 86 | 99 | 1.0 | 3.0 | 0.22 | 0.28 | 0.22 | 77 | 1010.0 |
| 20260504193304 | 86 | 84 | 1.0 | 3.0 | 0.22 | 0.28 | 0.22 | 77 | 1010.0 |
| 20260504193004 | 86 | 92 | 1.0 | 3.0 | 0.22 | 0.28 | 0.22 | 77 | 1010.0 |
| 20260504192704 | 86 | 109 | 1.0 | 3.0 | 0.22 | 0.28 | 0.22 | 77 | 1010.0 |
| 20260504192404 | 87 | 119 | 1.0 | 4.0 | 0.22 | 0.28 | 0.22 | 76 | 1010.0 |
| 20260504192104 | 87 | 127 | 1.0 | 5.0 | 0.22 | 0.28 | 0.22 | 77 | 1010.0 |
| 20260504191804 | 87 | 107 | 2.0 | 5.0 | 0.22 | 0.28 | 0.22 | 77 | 1010.0 |
| 20260504191504 | 87 | 89 | 1.0 | 5.0 | 0.21 | 0.27 | 0.21 | 77 | 1010.0 |
| 20260504191204 | 87 | 84 | 1.0 | 5.0 | 0.21 | 0.27 | 0.21 | 77 | 1010.0 |
| 20260504190904 | 87 | 91 | 1.0 | 4.0 | 0.21 | 0.27 | 0.21 | 77 | 1010.0 |
| 20260504190604 | 87 | 101 | 1.0 | 6.0 | 0.21 | 0.27 | 0.21 | 76 | 1010.0 |
| 20260504190304 | 87 | 113 | 2.0 | 6.0 | 0.20 | 0.26 | 0.20 | 77 | 1010.0 |
| 20260504190004 | 86 | 117 | 2.0 | 6.0 | 0.14 | 0.20 | 0.14 | 76 | 1010.0 |
| 20260504185704 | 87 | 113 | 3.0 | 6.0 | 0.06 | 0.12 | 0.06 | 76 | 1010.0 |
| 20260504185404 | 87 | 111 | 2.0 | 6.0 | 0.01 | 0.07 | 0.01 | 77 | 1010.0 |
| 20260504185104 | 87 | 110 | 1.0 | 5.0 | 0.00 | 0.06 | 0.00 | 77 | 1010.0 |
| 20260504184804 | 87 | 115 | 1.0 | 4.0 | 0.00 | 0.06 | 0.00 | 77 | 1010.0 |
| 20260504184504 | 87 | 123 | 0.0 | 2.0 | 0.00 | 0.06 | 0.00 | 77 | 1010.0 |
| 20260504184204 | 87 | 149 | 0.0 | 1.0 | 0.00 | 0.06 | 0.00 | 77 | 1010.0 |
| 20260504183904 | 87 | 0 | 0.0 | 1.0 | 0.00 | 0.06 | 0.00 | 77 | 1010.0 |
| 20260504183604 | 87 | 99 | 0.0 | 1.0 | 0.00 | 0.06 | 0.00 | 77 | 1010.0 |
| 20260504183325 | 87 | 99 | 0.0 | 1.0 | 0.00 | 0.06 | 0.00 | 77 | 1010.0 |
| 20260504183004 | 87 | 99 | 0.0 | 2.0 | 0.00 | 0.13 | 0.00 | 77 | 1010.0 |
| 20260504182725 | 87 | 94 | 0.0 | 2.0 | 0.00 | 0.13 | 0.13 | 77 | 1010.0 |
| 20260504182404 | 87 | 100 | 0.0 | 2.0 | 0.00 | 0.13 | 0.13 | 77 | 1010.0 |
| 20260504182125 | 87 | 112 | 0.0 | 2.0 | 0.00 | 0.13 | 0.13 | 77 | 1010.0 |
| 20260504181804 | 87 | 136 | 0.0 | 1.0 | 0.00 | 0.13 | 0.13 | 77 | 1010.0 |
| 20260504181525 | 87 | 136 | 0.0 | 2.0 | 0.00 | 0.13 | 0.13 | 77 | 1010.0 |
| 20260504181204 | 87 | 123 | 0.0 | 2.0 | 0.00 | 0.13 | 0.13 | 77 | 1010.0 |
| 20260504180925 | 87 | 120 | 0.0 | 2.0 | 0.00 | 0.13 | 0.13 | 77 | 1010.0 |
| 20260504180604 | 87 | 117 | 0.0 | 2.0 | 0.00 | 0.13 | 0.13 | 77 | 1010.0 |
| 20260504180304 | 87 | 105 | 0.0 | 2.0 | 0.00 | 0.13 | 0.13 | 77 | 1010.0 |
| 20260504180004 | 87 | 107 | 0.0 | 1.0 | 0.00 | 0.13 | 0.13 | 77 | 1010.0 |
| 20260504175704 | 87 | 99 | 0.0 | 1.0 | 0.00 | 0.13 | 0.13 | 77 | 1010.0 |
| 20260504175404 | 87 | 92 | 0.0 | 1.0 | 0.00 | 0.13 | 0.13 | 76 | 1010.0 |
| 20260504175104 | 87 | 83 | 0.0 | 2.0 | 0.00 | 0.13 | 0.13 | 76 | 1010.0 |
| 20260504174804 | 87 | 73 | 0.0 | 2.0 | 0.00 | 0.13 | 0.13 | 76 | 1010.0 |
| 20260504174504 | 87 | 77 | 0.0 | 2.0 | 0.00 | 0.13 | 0.13 | 77 | 1010.0 |
| 20260504174204 | 87 | 90 | 0.0 | 2.0 | 0.00 | 0.13 | 0.13 | 76 | 1010.0 |
| 20260504173904 | 87 | 88 | 0.0 | 2.0 | 0.00 | 0.13 | 0.13 | 76 | 1010.0 |
| 20260504173625 | 87 | 105 | 1.0 | 2.0 | 0.00 | 0.13 | 0.13 | 76 | 1010.0 |
| 20260504173304 | 87 | 122 | 1.0 | 2.0 | 0.00 | 0.13 | 0.13 | 76 | 1010.0 |
| 20260504173004 | 87 | 106 | 1.0 | 3.0 | 0.00 | 0.13 | 0.13 | 77 | 1010.0 |
| 20260504172725 | 87 | 103 | 0.0 | 3.0 | 0.00 | 0.13 | 0.13 | 76 | 1010.0 |
| 20260504172404 | 87 | 87 | 0.0 | 3.0 | 0.00 | 0.13 | 0.13 | 77 | 1010.0 |
| 20260504172125 | 87 | 98 | 0.0 | 3.0 | 0.00 | 0.13 | 0.13 | 77 | 1010.0 |
| 20260504171805 | 87 | 87 | 0.0 | 2.0 | 0.00 | 0.13 | 0.13 | 77 | 1010.0 |
| 20260504171505 | 87 | 90 | 0.0 | 2.0 | 0.00 | 0.13 | 0.13 | 77 | 1010.0 |
| 20260504171204 | 87 | 90 | 0.0 | 2.0 | 0.00 | 0.13 | 0.13 | 77 | 1010.0 |
| 20260504170925 | 88 | 96 | 1.0 | 3.0 | 0.00 | 0.13 | 0.13 | 77 | 1010.0 |
| 20260504170625 | 88 | 82 | 1.0 | 3.0 | 0.00 | 0.13 | 0.13 | 77 | 1010.0 |
| 20260504170304 | 87 | 73 | 1.0 | 3.0 | 0.00 | 0.13 | 0.13 | 77 | 1010.0 |
| 20260504160304 | 88 | 105 | 0.0 | 2.0 | 0.00 | 0.13 | 0.13 | 76 | 1010.0 |
| 20260504150905 | 88 | 104 | 0.0 | 2.0 | 0.00 | 0.13 | 0.13 | 76 | 1010.0 |
| 20260504150604 | 88 | 60 | 0.0 | 1.0 | 0.00 | 0.13 | 0.13 | 76 | 1010.0 |
| 20260504150304 | 88 | 0 | 0.0 | 0.0 | 0.00 | 0.13 | 0.13 | 76 | 1010.0 |
| 20260504141204 | 88 | 96 | 1.0 | 4.0 | 0.00 | 0.13 | 0.13 | 76 | 1010.0 |
| 20260504140904 | 88 | 91 | 1.0 | 4.0 | 0.00 | 0.13 | 0.13 | 76 | 1010.0 |
| 20260504140604 | 88 | 90 | 1.0 | 3.0 | 0.00 | 0.13 | 0.13 | 76 | 1010.0 |
| 20260504140304 | 88 | 98 | 1.0 | 3.0 | 0.00 | 0.13 | 0.13 | 76 | 1010.0 |
| 20260504130625 | 89 | 108 | 1.0 | 3.0 | 0.00 | 0.13 | 0.13 | 74 | 1010.0 |
| 20260504120304 | 89 | 101 | 2.0 | 6.0 | 0.00 | 0.13 | 0.13 | 74 | 1010.0 |
| 20260504110604 | 89 | 131 | 1.0 | 4.0 | 0.00 | 0.13 | 0.13 | 74 | 1010.0 |
| 20260504110304 | 90 | 123 | 1.0 | 4.0 | 0.00 | 0.13 | 0.13 | 74 | 1010.0 |
| 20260504100604 | 90 | 130 | 1.0 | 3.0 | 0.00 | 0.13 | 0.13 | 74 | 1010.0 |
| 20260504100325 | 90 | 124 | 1.0 | 4.0 | 0.00 | 0.13 | 0.13 | 74 | 1010.0 |
| 20260504081804 | 91 | 168 | 2.0 | 6.0 | 0.00 | 0.13 | 0.13 | 72 | 1010.0 |
| 20260504081526 | 91 | 150 | 2.0 | 6.0 | 0.00 | 0.13 | 0.13 | 72 | 1010.0 |
| 20260504081204 | 91 | 177 | 2.0 | 6.0 | 0.00 | 0.13 | 0.13 | 72 | 1010.0 |
| 20260504080904 | 91 | 154 | 2.0 | 6.0 | 0.00 | 0.13 | 0.13 | 72 | 1010.0 |
| 20260504080625 | 91 | 148 | 1.0 | 4.0 | 0.00 | 0.13 | 0.13 | 72 | 1010.0 |
| 20260504070304 | 89 | 128 | 1.0 | 4.0 | 0.00 | 0.13 | 0.13 | 74 | 1010.0 |
| 20260504050625 | 88 | 162 | 1.0 | 3.0 | 0.00 | 0.13 | 0.13 | 79 | 1010.0 |
| 20260504050304 | 88 | 158 | 1.0 | 3.0 | 0.00 | 0.13 | 0.13 | 79 | 1010.0 |
| 20260504050025 | 88 | 156 | 1.0 | 4.0 | 0.00 | 0.13 | 0.13 | 79 | 1010.0 |
| 20260504045725 | 88 | 145 | 1.0 | 4.0 | 0.00 | 0.13 | 0.13 | 79 | 1010.0 |
| 20260504045404 | 88 | 155 | 1.0 | 4.0 | 0.00 | 0.13 | 0.13 | 79 | 1010.0 |
| 20260504045104 | 88 | 139 | 1.0 | 4.0 | 0.00 | 0.13 | 0.13 | 79 | 1010.0 |
| 20260504044804 | 88 | 131 | 2.0 | 5.0 | 0.00 | 0.13 | 0.13 | 79 | 1010.0 |
| 20260504044525 | 88 | 131 | 2.0 | 5.0 | 0.00 | 0.13 | 0.13 | 79 | 1010.0 |
| 20260504044204 | 88 | 124 | 1.0 | 5.0 | 0.00 | 0.13 | 0.13 | 79 | 1010.0 |
| 20260504043904 | 88 | 141 | 1.0 | 5.0 | 0.00 | 0.13 | 0.13 | 80 | 1010.0 |
| 20260504043604 | 88 | 141 | 1.0 | 4.0 | 0.00 | 0.13 | 0.13 | 80 | 1010.0 |
| 20260504043304 | 88 | 149 | 1.0 | 4.0 | 0.00 | 0.13 | 0.13 | 80 | 1010.0 |
| 20260504043004 | 88 | 137 | 1.0 | 4.0 | 0.00 | 0.13 | 0.13 | 80 | 1010.0 |
| 20260504042704 | 87 | 134 | 1.0 | 4.0 | 0.00 | 0.13 | 0.13 | 80 | 1010.0 |
| 20260504042404 | 87 | 129 | 1.0 | 4.0 | 0.00 | 0.13 | 0.13 | 81 | 1010.0 |
| 20260504042104 | 87 | 129 | 1.0 | 4.0 | 0.00 | 0.13 | 0.13 | 81 | 1010.0 |
| 20260504041804 | 87 | 124 | 1.0 | 4.0 | 0.00 | 0.13 | 0.13 | 81 | 1010.0 |
| 20260504041504 | 87 | 121 | 1.0 | 3.0 | 0.00 | 0.13 | 0.13 | 81 | 1010.0 |
| 20260504041204 | 87 | 121 | 1.0 | 3.0 | 0.00 | 0.13 | 0.13 | 82 | 1010.0 |
| 20260504040904 | 87 | 126 | 1.0 | 4.0 | 0.00 | 0.13 | 0.13 | 82 | 1010.0 |
| 20260504040604 | 87 | 131 | 1.0 | 4.0 | 0.00 | 0.13 | 0.13 | 82 | 1010.0 |
| 20260504040325 | 87 | 108 | 2.0 | 4.0 | 0.00 | 0.13 | 0.13 | 82 | 1010.0 |
| 20260504040004 | 87 | 89 | 2.0 | 4.0 | 0.00 | 0.13 | 0.13 | 82 | 1010.0 |
| 20260504035725 | 87 | 106 | 2.0 | 4.0 | 0.00 | 0.13 | 0.13 | 82 | 1010.0 |
| 20260504035404 | 87 | 118 | 2.0 | 4.0 | 0.00 | 0.13 | 0.13 | 82 | 1010.0 |
| 20260504035125 | 87 | 121 | 1.0 | 4.0 | 0.00 | 0.13 | 0.13 | 82 | 1010.0 |
| 20260504034804 | 87 | 131 | 1.0 | 4.0 | 0.00 | 0.13 | 0.13 | 82 | 1010.0 |
| 20260504034504 | 87 | 323 | 1.0 | 4.0 | 0.00 | 0.13 | 0.13 | 82 | 1010.0 |
| 20260504034204 | 87 | 338 | 1.0 | 4.0 | 0.00 | 0.13 | 0.13 | 82 | 1010.0 |
| 20260504033904 | 86 | 306 | 1.0 | 4.0 | 0.00 | 0.13 | 0.13 | 82 | 1010.0 |
| 20260504033604 | 86 | 147 | 1.0 | 3.0 | 0.00 | 0.13 | 0.13 | 82 | 1010.0 |
| 20260504033304 | 86 | 168 | 1.0 | 3.0 | 0.00 | 0.13 | 0.13 | 82 | 1010.0 |
| 20260504033025 | 86 | 129 | 1.0 | 4.0 | 0.00 | 0.13 | 0.13 | 82 | 1010.0 |
| 20260504032704 | 86 | 154 | 1.0 | 4.0 | 0.00 | 0.13 | 0.13 | 82 | 1010.0 |
| 20260504032404 | 86 | 156 | 1.0 | 4.0 | 0.00 | 0.13 | 0.13 | 83 | 1010.0 |
| 20260504032104 | 86 | 168 | 1.0 | 4.0 | 0.00 | 0.13 | 0.13 | 83 | 1010.0 |
| 20260504031804 | 86 | 167 | 1.0 | 3.0 | 0.00 | 0.13 | 0.13 | 83 | 1010.0 |
| 20260504031504 | 86 | 172 | 1.0 | 3.0 | 0.00 | 0.13 | 0.13 | 83 | 1010.0 |
| 20260504031225 | 86 | 159 | 1.0 | 3.0 | 0.00 | 0.13 | 0.13 | 83 | 1010.0 |
| 20260504030905 | 86 | 174 | 1.0 | 3.0 | 0.00 | 0.13 | 0.13 | 83 | 1010.0 |
| 20260504030625 | 86 | 182 | 1.0 | 3.0 | 0.00 | 0.13 | 0.13 | 83 | 1010.0 |
| 20260504030304 | 86 | 183 | 1.0 | 3.0 | 0.00 | 0.13 | 0.13 | 83 | 1010.0 |
| 20260504030004 | 86 | 190 | 1.0 | 3.0 | 0.00 | 0.13 | 0.13 | 83 | 1010.0 |
| 20260504025704 | 86 | 181 | 1.0 | 3.0 | 0.00 | 0.13 | 0.13 | 83 | 1010.0 |
| 20260504025425 | 85 | 190 | 1.0 | 3.0 | 0.00 | 0.13 | 0.13 | 83 | 1010.0 |
| 20260504025104 | 85 | 201 | 1.0 | 3.0 | 0.00 | 0.13 | 0.13 | 83 | 1010.0 |
| 20260504024804 | 85 | 207 | 1.0 | 3.0 | 0.00 | 0.13 | 0.13 | 83 | 1010.0 |
| 20260504024504 | 86 | 221 | 0.0 | 2.0 | 0.00 | 0.13 | 0.13 | 83 | 1010.0 |
| 20260504024204 | 86 | 197 | 0.0 | 2.0 | 0.00 | 0.13 | 0.13 | 83 | 1010.0 |
| 20260504023905 | 86 | 178 | 0.0 | 2.0 | 0.00 | 0.13 | 0.13 | 83 | 1010.0 |
| 20260504023604 | 86 | 165 | 0.0 | 2.0 | 0.00 | 0.13 | 0.13 | 83 | 1010.0 |
| 20260504023304 | 85 | 151 | 0.0 | 2.0 | 0.00 | 0.13 | 0.13 | 84 | 1010.0 |
| 20260504023025 | 85 | 169 | 0.0 | 3.0 | 0.00 | 0.13 | 0.13 | 83 | 1010.0 |
| 20260504022704 | 85 | 180 | 1.0 | 3.0 | 0.00 | 0.13 | 0.13 | 83 | 1010.0 |
| 20260504022404 | 85 | 175 | 1.0 | 3.0 | 0.00 | 0.13 | 0.13 | 83 | 1010.0 |
| 20260504022104 | 85 | 154 | 1.0 | 3.0 | 0.00 | 0.13 | 0.13 | 83 | 1010.0 |
| 20260504021804 | 85 | 141 | 1.0 | 3.0 | 0.00 | 0.13 | 0.13 | 84 | 1010.0 |
| 20260504021504 | 86 | 129 | 0.0 | 3.0 | 0.00 | 0.13 | 0.13 | 83 | 1010.0 |
| 20260504021225 | 85 | 142 | 0.0 | 3.0 | 0.00 | 0.13 | 0.13 | 83 | 1010.0 |
| 20260504020904 | 85 | 143 | 1.0 | 3.0 | 0.00 | 0.13 | 0.13 | 83 | 1010.0 |
| 20260504020604 | 85 | 134 | 0.0 | 3.0 | 0.00 | 0.13 | 0.13 | 83 | 1010.0 |
| 20260504020304 | 85 | 131 | 0.0 | 3.0 | 0.00 | 0.13 | 0.13 | 83 | 1010.0 |
| 20260504020025 | 85 | 92 | 0.0 | 2.0 | 0.00 | 0.13 | 0.13 | 83 | 1010.0 |
| 20260504015725 | 85 | 98 | 0.0 | 1.0 | 0.00 | 0.13 | 0.13 | 83 | 1010.0 |
| 20260504015404 | 85 | 99 | 0.0 | 2.0 | 0.00 | 0.13 | 0.13 | 82 | 1010.0 |
| 20260504015104 | 85 | 107 | 0.0 | 2.0 | 0.00 | 0.13 | 0.13 | 82 | 1010.0 |
| 20260504014804 | 85 | 103 | 0.0 | 2.0 | 0.00 | 0.13 | 0.13 | 82 | 1010.0 |
| 20260504014525 | 85 | 103 | 0.0 | 2.0 | 0.00 | 0.13 | 0.13 | 82 | 1010.0 |
| 20260504014204 | 85 | 125 | 0.0 | 3.0 | 0.00 | 0.13 | 0.13 | 82 | 1010.0 |
| 20260504013925 | 85 | 160 | 1.0 | 3.0 | 0.00 | 0.13 | 0.13 | 82 | 1010.0 |
| 20260504013604 | 85 | 167 | 1.0 | 3.0 | 0.00 | 0.13 | 0.13 | 83 | 1010.0 |
| 20260504013304 | 85 | 173 | 1.0 | 2.0 | 0.00 | 0.13 | 0.13 | 83 | 1010.0 |
| 20260504013004 | 85 | 140 | 0.0 | 2.0 | 0.00 | 0.13 | 0.13 | 83 | 1010.0 |
| 20260504012704 | 86 | 129 | 0.0 | 2.0 | 0.00 | 0.13 | 0.13 | 82 | 1010.0 |
| 20260504012404 | 85 | 139 | 0.0 | 3.0 | 0.00 | 0.13 | 0.13 | 82 | 1010.0 |
| 20260504012104 | 85 | 150 | 1.0 | 3.0 | 0.00 | 0.13 | 0.13 | 82 | 1010.0 |
| 20260504011804 | 86 | 151 | 1.0 | 4.0 | 0.00 | 0.13 | 0.13 | 81 | 1010.0 |
| 20260504011504 | 86 | 164 | 1.0 | 4.0 | 0.00 | 0.13 | 0.13 | 81 | 1010.0 |
| 20260504011204 | 86 | 171 | 1.0 | 4.0 | 0.00 | 0.13 | 0.13 | 81 | 1010.0 |
| 20260504010904 | 86 | 158 | 1.0 | 4.0 | 0.00 | 0.13 | 0.13 | 81 | 1010.0 |
| 20260504010604 | 86 | 149 | 1.0 | 4.0 | 0.00 | 0.13 | 0.13 | 81 | 1010.0 |
| 20260504010304 | 86 | 133 | 1.0 | 4.0 | 0.00 | 0.13 | 0.13 | 81 | 1010.0 |
| 20260504010004 | 86 | 125 | 1.0 | 4.0 | 0.00 | 0.13 | 0.13 | 81 | 1010.0 |
| 20260504005704 | 86 | 124 | 1.0 | 4.0 | 0.00 | 0.13 | 0.13 | 81 | 1010.0 |
| 20260504005404 | 86 | 103 | 1.0 | 3.0 | 0.00 | 0.13 | 0.13 | 82 | 1010.0 |
| 20260504005104 | 86 | 99 | 1.0 | 3.0 | 0.00 | 0.13 | 0.13 | 81 | 1010.0 |
| 20260504004804 | 86 | 107 | 1.0 | 3.0 | 0.00 | 0.13 | 0.13 | 81 | 1010.0 |
| 20260504004504 | 86 | 104 | 1.0 | 3.0 | 0.00 | 0.13 | 0.13 | 81 | 1010.0 |
| 20260504004225 | 86 | 105 | 1.0 | 3.0 | 0.00 | 0.13 | 0.13 | 81 | 1010.0 |
| 20260504003904 | 86 | 73 | 0.0 | 2.0 | 0.00 | 0.13 | 0.13 | 81 | 1010.0 |
| 20260504003604 | 86 | 82 | 0.0 | 2.0 | 0.00 | 0.13 | 0.13 | 81 | 1010.0 |
| 20260504003304 | 86 | 69 | 0.0 | 2.0 | 0.00 | 0.13 | 0.13 | 81 | 1010.0 |
| 20260504003004 | 86 | 88 | 0.0 | 2.0 | 0.00 | 0.13 | 0.13 | 81 | 1010.0 |
| 20260504002704 | 86 | 92 | 0.0 | 2.0 | 0.00 | 0.13 | 0.13 | 81 | 1010.0 |
| 20260504002404 | 86 | 84 | 0.0 | 3.0 | 0.00 | 0.13 | 0.13 | 81 | 1010.0 |
| 20260504002125 | 86 | 85 | 0.0 | 3.0 | 0.00 | 0.13 | 0.13 | 81 | 1010.0 |
| 20260504001804 | 86 | 76 | 1.0 | 3.0 | 0.00 | 0.13 | 0.13 | 81 | 1010.0 |
| 20260504001504 | 86 | 80 | 1.0 | 3.0 | 0.00 | 0.13 | 0.13 | 81 | 1010.0 |
| 20260504001225 | 86 | 83 | 1.0 | 2.0 | 0.00 | 0.13 | 0.13 | 81 | 1010.0 |
| 20260504000925 | 86 | 72 | 0.0 | 2.0 | 0.00 | 0.13 | 0.13 | 81 | 1010.0 |
| 20260504000604 | 86 | 67 | 0.0 | 2.0 | 0.00 | 0.13 | 0.13 | 81 | 1010.0 |
| 20260504000304 | 86 | 68 | 0.0 | 2.0 | 0.00 | 0.13 | 0.13 | 81 | 1010.0 |
| 20260504000004 | 86 | 69 | 0.0 | 2.0 | 0.00 | 0.13 | 0.13 | 81 | 1010.0 |
| 20260503235704 | 86 | 85 | 0.0 | 3.0 | 0.00 | 0.13 | 0.13 | 81 | 1010.0 |
| 20260503235425 | 86 | 92 | 1.0 | 3.0 | 0.00 | 0.13 | 0.13 | 81 | 1010.0 |
| 20260503235104 | 86 | 93 | 1.0 | 3.0 | 0.00 | 0.13 | 0.13 | 81 | 1010.0 |
| 20260503234804 | 86 | 100 | 1.0 | 4.0 | 0.00 | 0.13 | 0.13 | 81 | 1010.0 |
| 20260503234504 | 86 | 105 | 1.0 | 4.0 | 0.00 | 0.13 | 0.13 | 81 | 1010.0 |
| 20260503234205 | 86 | 105 | 1.0 | 4.0 | 0.00 | 0.13 | 0.13 | 81 | 1010.0 |
| 20260503233904 | 86 | 108 | 1.0 | 4.0 | 0.00 | 0.13 | 0.13 | 81 | 1010.0 |
| 20260503233604 | 86 | 86 | 0.0 | 3.0 | 0.00 | 0.13 | 0.13 | 81 | 1010.0 |
| 20260503233304 | 86 | 77 | 0.0 | 2.0 | 0.00 | 0.13 | 0.13 | 81 | 1010.0 |
| 20260503233004 | 86 | 68 | 0.0 | 2.0 | 0.00 | 0.13 | 0.13 | 81 | 1010.0 |
| 20260503232704 | 86 | 72 | 0.0 | 2.0 | 0.00 | 0.13 | 0.13 | 81 | 1010.0 |
| 20260503232404 | 86 | 76 | 0.0 | 2.0 | 0.00 | 0.13 | 0.13 | 81 | 1010.0 |
| 20260503232125 | 86 | 92 | 1.0 | 3.0 | 0.00 | 0.13 | 0.13 | 81 | 1010.0 |
| 20260503231825 | 86 | 105 | 1.0 | 3.0 | 0.00 | 0.13 | 0.13 | 81 | 1010.0 |
| 20260503231504 | 86 | 103 | 1.0 | 3.0 | 0.00 | 0.13 | 0.13 | 80 | 1010.0 |
| 20260503231225 | 86 | 102 | 1.0 | 3.0 | 0.00 | 0.13 | 0.13 | 81 | 1010.0 |
| 20260503230904 | 86 | 89 | 1.0 | 4.0 | 0.00 | 0.13 | 0.13 | 81 | 1010.0 |
| 20260503230604 | 86 | 81 | 1.0 | 4.0 | 0.00 | 0.13 | 0.13 | 81 | 1010.0 |
| 20260503230304 | 86 | 93 | 1.0 | 4.0 | 0.00 | 0.13 | 0.13 | 81 | 1010.0 |
| 20260503230004 | 86 | 108 | 1.0 | 4.0 | 0.00 | 0.13 | 0.13 | 81 | 1010.0 |
| 20260503225725 | 86 | 129 | 1.0 | 4.0 | 0.00 | 0.13 | 0.13 | 81 | 1010.0 |
| 20260503225404 | 86 | 108 | 1.0 | 4.0 | 0.00 | 0.13 | 0.13 | 80 | 1010.0 |
| 20260503225104 | 86 | 111 | 0.0 | 3.0 | 0.00 | 0.13 | 0.13 | 81 | 1010.0 |
| 20260503224804 | 86 | 123 | 0.0 | 2.0 | 0.00 | 0.13 | 0.13 | 80 | 1010.0 |
| 20260503224504 | 86 | 120 | 0.0 | 3.0 | 0.00 | 0.13 | 0.13 | 80 | 1010.0 |
| 20260503224204 | 86 | 134 | 1.0 | 3.0 | 0.00 | 0.13 | 0.13 | 80 | 1010.0 |
| 20260503223904 | 86 | 129 | 1.0 | 3.0 | 0.00 | 0.13 | 0.13 | 80 | 1010.0 |
| 20260503223604 | 86 | 126 | 1.0 | 3.0 | 0.00 | 0.13 | 0.13 | 80 | 1010.0 |
| 20260503223304 | 86 | 122 | 1.0 | 2.0 | 0.00 | 0.13 | 0.13 | 80 | 1010.0 |